29/04/2024 08:15:00,0.734
29/04/2024 08:30:00,0.734
29/04/2024 08:45:00,0.733
29/04/2024 09:00:00,0.734
29/04/2024 09:15:00,0.732
29/04/2024 09:30:00,0.733
29/04/2024 09:45:00,0.732
29/04/2024 10:00:00,0.734
29/04/2024 10:15:00,0.734
29/04/2024 10:30:00,0.734
29/04/2024 10:45:00,0.733
29/04/2024 11:00:00,0.734
29/04/2024 11:15:00,0.733
29/04/2024 11:30:00,0.732
29/04/2024 11:45:00,0.732
29/04/2024 12:00:00,0.732
29/04/2024 12:15:00,0.732
29/04/2024 12:30:00,0.733
29/04/2024 12:45:00,0.734
29/04/2024 13:00:00,0.734
29/04/2024 13:15:00,0.734
29/04/2024 13:30:00,0.732
29/04/2024 13:45:00,0.734
29/04/2024 14:00:00,0.736
29/04/2024 14:15:00,0.735
29/04/2024 14:30:00,0.734
29/04/2024 14:45:00,0.734
29/04/2024 15:00:00,0.734
29/04/2024 15:15:00,0.734
29/04/2024 15:30:00,0.733
29/04/2024 15:45:00,0.734
29/04/2024 16:00:00,0.735
29/04/2024 16:15:00,0.734
29/04/2024 16:30:00,0.734
29/04/2024 16:45:00,0.735
29/04/2024 17:00:00,0.734
29/04/2024 17:15:00,0.737
29/04/2024 17:30:00,0.737
29/04/2024 17:45:00,0.736
29/04/2024 18:00:00,0.737
29/04/2024 18:15:00,0.737
29/04/2024 18:30:00,0.741
29/04/2024 18:45:00,0.742
29/04/2024 19:00:00,0.745
29/04/2024 19:15:00,0.746
29/04/2024 19:30:00,0.747
29/04/2024 19:45:00,0.754
29/04/2024 20:00:00,0.757
29/04/2024 20:15:00,0.765
29/04/2024 20:30:00,0.77
29/04/2024 20:45:00,0.776
29/04/2024 21:00:00,0.784
29/04/2024 21:15:00,0.794
29/04/2024 21:30:00,0.803
29/04/2024 21:45:00,0.812
29/04/2024 22:00:00,0.822
29/04/2024 22:15:00,0.835
29/04/2024 22:30:00,0.846
29/04/2024 22:45:00,0.857
29/04/2024 23:00:00,0.867
29/04/2024 23:15:00,0.878
29/04/2024 23:30:00,0.889
29/04/2024 23:45:00,0.896
30/04/2024 00:00:00,0.904
30/04/2024 00:15:00,0.909
30/04/2024 00:30:00,0.915
30/04/2024 00:45:00,0.92
30/04/2024 01:00:00,0.924
30/04/2024 01:15:00,0.929
30/04/2024 01:30:00,0.932
30/04/2024 01:45:00,0.937
30/04/2024 02:00:00,0.94
30/04/2024 02:15:00,0.947
30/04/2024 02:30:00,0.951
30/04/2024 02:45:00,0.961
30/04/2024 03:00:00,0.97
30/04/2024 03:15:00,0.98
30/04/2024 03:30:00,0.994
30/04/2024 03:45:00,1.007
30/04/2024 04:00:00,1.025
30/04/2024 04:15:00,1.041
30/04/2024 04:30:00,1.06
30/04/2024 04:45:00,1.078
30/04/2024 05:00:00,1.098
30/04/2024 05:15:00,1.114
30/04/2024 05:30:00,1.134
30/04/2024 05:45:00,1.153
30/04/2024 06:00:00,1.169
30/04/2024 06:15:00,1.189
30/04/2024 06:30:00,1.205
30/04/2024 06:45:00,1.218
30/04/2024 07:00:00,1.234
30/04/2024 07:15:00,1.242
30/04/2024 07:30:00,1.25
30/04/2024 07:45:00,1.255
30/04/2024 08:00:00,1.262
30/04/2024 08:15:00,1.262
30/04/2024 08:30:00,1.262
30/04/2024 08:45:00,1.259
30/04/2024 09:00:00,1.257
30/04/2024 09:15:00,1.253
30/04/2024 09:30:00,1.248
30/04/2024 09:45:00,1.245
30/04/2024 10:00:00,1.242
30/04/2024 10:15:00,1.232
30/04/2024 10:30:00,1.223
30/04/2024 10:45:00,1.219
30/04/2024 11:00:00,1.212
30/04/2024 11:15:00,1.205
30/04/2024 11:30:00,1.199
30/04/2024 11:45:00,1.192
30/04/2024 12:00:00,1.183
30/04/2024 12:15:00,1.179
30/04/2024 12:30:00,1.174
30/04/2024 12:45:00,1.166
30/04/2024 13:00:00,1.159
30/04/2024 13:15:00,1.157
30/04/2024 13:30:00,1.156
30/04/2024 13:45:00,1.153
30/04/2024 14:00:00,1.149
30/04/2024 14:15:00,1.148
30/04/2024 14:30:00,1.147
30/04/2024 14:45:00,1.146
30/04/2024 15:00:00,1.146
30/04/2024 15:15:00,1.145
30/04/2024 15:30:00,1.144
30/04/2024 15:45:00,1.139
30/04/2024 16:00:00,1.14
30/04/2024 16:15:00,1.137
30/04/2024 16:30:00,1.135
30/04/2024 16:45:00,1.133
30/04/2024 17:00:00,1.127
30/04/2024 17:15:00,1.126
30/04/2024 17:30:00,1.12
30/04/2024 17:45:00,1.112
30/04/2024 18:00:00,1.106
30/04/2024 18:15:00,1.1
30/04/2024 18:30:00,1.092
30/04/2024 18:45:00,1.085
30/04/2024 19:00:00,1.081
30/04/2024 19:15:00,1.075
30/04/2024 19:30:00,1.069
30/04/2024 19:45:00,1.064
30/04/2024 20:00:00,1.062
30/04/2024 20:15:00,1.059
30/04/2024 20:30:00,1.056
30/04/2024 20:45:00,1.053
30/04/2024 21:00:00,1.053
30/04/2024 21:15:00,1.051
30/04/2024 21:30:00,1.05
30/04/2024 21:45:00,1.05
30/04/2024 22:00:00,1.049
30/04/2024 22:15:00,1.049
30/04/2024 22:30:00,1.048
30/04/2024 22:45:00,1.047
30/04/2024 23:00:00,1.046
30/04/2024 23:15:00,1.044
30/04/2024 23:30:00,1.044
30/04/2024 23:45:00,1.044
01/05/2024 00:00:00,1.046
01/05/2024 00:15:00,1.046
01/05/2024 00:30:00,1.044
01/05/2024 00:45:00,1.046
01/05/2024 01:00:00,1.048
01/05/2024 01:15:00,1.046
01/05/2024 01:30:00,1.048
01/05/2024 01:45:00,1.047
01/05/2024 02:00:00,1.046
01/05/2024 02:15:00,1.046
01/05/2024 02:30:00,1.047
01/05/2024 02:45:00,1.042
01/05/2024 03:00:00,1.042
01/05/2024 03:15:00,1.041
01/05/2024 03:30:00,1.039
01/05/2024 03:45:00,1.038
01/05/2024 04:00:00,1.036
01/05/2024 04:15:00,1.033
01/05/2024 04:30:00,1.03
01/05/2024 04:45:00,1.027
01/05/2024 05:00:00,1.024
01/05/2024 05:15:00,1.022
01/05/2024 05:30:00,1.017
01/05/2024 05:45:00,1.017
01/05/2024 06:00:00,1.013
01/05/2024 06:15:00,1.009
01/05/2024 06:30:00,1.007
01/05/2024 06:45:00,1.005
01/05/2024 07:00:00,1.003
01/05/2024 07:15:00,0.998
01/05/2024 07:30:00,0.997
01/05/2024 07:45:00,0.996
01/05/2024 08:00:00,0.995
01/05/2024 08:15:00,0.994
01/05/2024 08:30:00,0.993
01/05/2024 08:45:00,0.993
01/05/2024 09:00:00,0.991
01/05/2024 09:15:00,0.988
01/05/2024 09:30:00,0.987
01/05/2024 09:45:00,0.986
01/05/2024 10:00:00,0.984
01/05/2024 10:15:00,0.984
01/05/2024 10:30:00,0.983
01/05/2024 10:45:00,0.982
01/05/2024 11:00:00,0.98
01/05/2024 11:15:00,0.98
01/05/2024 11:30:00,0.979
01/05/2024 11:45:00,0.977
01/05/2024 12:00:00,0.974
01/05/2024 12:15:00,0.975
01/05/2024 12:30:00,0.974
01/05/2024 12:45:00,0.973
01/05/2024 13:00:00,0.971
01/05/2024 13:15:00,0.97
01/05/2024 13:30:00,0.966
01/05/2024 13:45:00,0.966
01/05/2024 14:00:00,0.966
01/05/2024 14:15:00,0.964
01/05/2024 14:30:00,0.962
01/05/2024 14:45:00,0.961
01/05/2024 15:00:00,0.96
01/05/2024 15:15:00,0.958
01/05/2024 15:30:00,0.955
01/05/2024 15:45:00,0.954
01/05/2024 16:00:00,0.951
01/05/2024 16:15:00,0.952
01/05/2024 16:30:00,0.951
01/05/2024 16:45:00,0.95
01/05/2024 17:00:00,0.948
01/05/2024 17:15:00,0.947
01/05/2024 17:30:00,0.947
01/05/2024 17:45:00,0.946
01/05/2024 18:00:00,0.946
01/05/2024 18:15:00,0.946
01/05/2024 18:30:00,0.946
01/05/2024 18:45:00,0.944
01/05/2024 19:00:00,0.942
01/05/2024 19:15:00,0.941
01/05/2024 19:30:00,0.942
01/05/2024 19:45:00,0.942
01/05/2024 20:00:00,0.941
01/05/2024 20:15:00,0.942
01/05/2024 20:30:00,0.94
01/05/2024 20:45:00,0.941
01/05/2024 21:00:00,0.939
01/05/2024 21:15:00,0.94
01/05/2024 21:30:00,0.94
01/05/2024 21:45:00,0.941
01/05/2024 22:00:00,0.94
01/05/2024 22:15:00,0.94
01/05/2024 22:30:00,0.94
01/05/2024 22:45:00,0.938
01/05/2024 23:00:00,0.938
01/05/2024 23:15:00,0.937
01/05/2024 23:30:00,0.938
01/05/2024 23:45:00,0.935
02/05/2024 00:00:00,0.935
02/05/2024 00:15:00,0.932
02/05/2024 00:30:00,0.932
02/05/2024 00:45:00,0.929
02/05/2024 01:00:00,0.929
02/05/2024 01:15:00,0.928
02/05/2024 01:30:00,0.927
02/05/2024 01:45:00,0.928
02/05/2024 02:00:00,0.925
02/05/2024 02:15:00,0.924
02/05/2024 02:30:00,0.921
02/05/2024 02:45:00,0.924
02/05/2024 03:00:00,0.921
02/05/2024 03:15:00,0.919
02/05/2024 03:30:00,0.918
02/05/2024 03:45:00,0.918
02/05/2024 04:00:00,0.918
02/05/2024 04:15:00,0.916
02/05/2024 04:30:00,0.916
02/05/2024 04:45:00,0.914
02/05/2024 05:00:00,0.914
02/05/2024 05:15:00,0.912
02/05/2024 05:30:00,0.91
02/05/2024 05:45:00,0.912
02/05/2024 06:00:00,0.908
02/05/2024 06:15:00,0.906
02/05/2024 06:30:00,0.904
02/05/2024 06:45:00,0.9
02/05/2024 07:00:00,0.897
02/05/2024 07:15:00,0.892
02/05/2024 07:30:00,0.886
02/05/2024 07:45:00,0.881
02/05/2024 08:00:00,0.873
02/05/2024 08:15:00,0.867
02/05/2024 08:30:00,0.86
02/05/2024 08:45:00,0.86
02/05/2024 09:00:00,0.85
02/05/2024 09:15:00,0.84
02/05/2024 09:30:00,0.834
02/05/2024 09:45:00,0.83
02/05/2024 10:00:00,0.824
02/05/2024 10:15:00,0.821
02/05/2024 10:30:00,0.813
02/05/2024 10:45:00,0.811
02/05/2024 11:00:00,0.809
02/05/2024 11:15:00,0.805
02/05/2024 11:30:00,0.803
02/05/2024 11:45:00,0.799
02/05/2024 12:00:00,0.799
02/05/2024 12:15:00,0.797
02/05/2024 12:30:00,0.799
02/05/2024 12:45:00,0.797
02/05/2024 13:00:00,0.794
02/05/2024 13:15:00,0.794
02/05/2024 13:30:00,0.792
02/05/2024 13:45:00,0.79
02/05/2024 14:00:00,0.792
02/05/2024 14:15:00,0.789
02/05/2024 14:30:00,0.788
02/05/2024 14:45:00,0.788
02/05/2024 15:00:00,0.783
02/05/2024 15:15:00,0.781
02/05/2024 15:30:00,0.778
02/05/2024 15:45:00,0.779
02/05/2024 16:00:00,0.773
02/05/2024 16:15:00,0.772
02/05/2024 16:30:00,0.77
02/05/2024 16:45:00,0.766
02/05/2024 17:00:00,0.766
02/05/2024 17:15:00,0.763
02/05/2024 17:30:00,0.761
02/05/2024 17:45:00,0.763
02/05/2024 18:00:00,0.758
02/05/2024 18:15:00,0.758
02/05/2024 18:30:00,0.757
02/05/2024 18:45:00,0.756
02/05/2024 19:00:00,0.754
02/05/2024 19:15:00,0.756
02/05/2024 19:30:00,0.755
02/05/2024 19:45:00,0.754
02/05/2024 20:00:00,0.754
02/05/2024 20:15:00,0.752
02/05/2024 20:30:00,0.752
02/05/2024 20:45:00,0.75
02/05/2024 21:00:00,0.75
02/05/2024 21:15:00,0.747
02/05/2024 21:30:00,0.752
02/05/2024 21:45:00,0.75
02/05/2024 22:00:00,0.752
02/05/2024 22:15:00,0.751
02/05/2024 22:30:00,0.755
02/05/2024 22:45:00,0.754
02/05/2024 23:00:00,0.755
02/05/2024 23:15:00,0.757
02/05/2024 23:30:00,0.761
02/05/2024 23:45:00,0.758
03/05/2024 00:00:00,0.756
03/05/2024 00:15:00,0.756
03/05/2024 00:30:00,0.761
03/05/2024 00:45:00,0.757
03/05/2024 01:00:00,0.757
03/05/2024 01:15:00,0.759
03/05/2024 01:30:00,0.756
03/05/2024 01:45:00,0.757
03/05/2024 02:00:00,0.756
03/05/2024 02:15:00,0.755
03/05/2024 02:30:00,0.754
03/05/2024 02:45:00,0.754
03/05/2024 03:00:00,0.754
03/05/2024 03:15:00,0.753
03/05/2024 03:30:00,0.753
03/05/2024 03:45:00,0.752
03/05/2024 04:00:00,0.752
03/05/2024 04:15:00,0.752
03/05/2024 04:30:00,0.751
03/05/2024 04:45:00,0.747
03/05/2024 05:00:00,0.746
03/05/2024 05:15:00,0.747
03/05/2024 05:30:00,0.75
03/05/2024 05:45:00,0.745
03/05/2024 06:00:00,0.745
03/05/2024 06:15:00,0.745
03/05/2024 06:30:00,0.743
03/05/2024 06:45:00,0.743
03/05/2024 07:00:00,0.743
03/05/2024 07:15:00,0.745
03/05/2024 07:30:00,0.742
03/05/2024 07:45:00,0.74
03/05/2024 08:00:00,0.742
03/05/2024 08:15:00,0.741
03/05/2024 08:30:00,0.738
03/05/2024 08:45:00,0.737
03/05/2024 09:00:00,0.736
03/05/2024 09:15:00,0.737
03/05/2024 09:30:00,0.735
03/05/2024 09:45:00,0.735
03/05/2024 10:00:00,0.735
03/05/2024 10:15:00,0.736
03/05/2024 10:30:00,0.734
03/05/2024 10:45:00,0.732
03/05/2024 11:00:00,0.734
03/05/2024 11:15:00,0.733
03/05/2024 11:30:00,0.73
03/05/2024 11:45:00,0.733
03/05/2024 12:00:00,0.732
03/05/2024 12:15:00,0.733
03/05/2024 12:30:00,0.731
03/05/2024 12:45:00,0.732
03/05/2024 13:00:00,0.734
03/05/2024 13:15:00,0.734
03/05/2024 13:30:00,0.732
03/05/2024 13:45:00,0.727
03/05/2024 14:00:00,0.73
03/05/2024 14:15:00,0.73
03/05/2024 14:30:00,0.729
03/05/2024 14:45:00,0.729
03/05/2024 15:00:00,0.727
03/05/2024 15:15:00,0.726
03/05/2024 15:30:00,0.723
03/05/2024 15:45:00,0.724
03/05/2024 16:00:00,0.725
03/05/2024 16:15:00,0.724
03/05/2024 16:30:00,0.725
03/05/2024 16:45:00,0.723
03/05/2024 17:00:00,0.723
03/05/2024 17:15:00,0.724
03/05/2024 17:30:00,0.724
03/05/2024 17:45:00,0.724
03/05/2024 18:00:00,0.725
03/05/2024 18:15:00,0.723
03/05/2024 18:30:00,0.723
03/05/2024 18:45:00,0.722
03/05/2024 19:00:00,0.723
03/05/2024 19:15:00,0.723
03/05/2024 19:30:00,0.722
03/05/2024 19:45:00,0.723
03/05/2024 20:00:00,0.722
03/05/2024 20:15:00,0.719
03/05/2024 20:30:00,0.72
03/05/2024 20:45:00,0.72
03/05/2024 21:00:00,0.721
03/05/2024 21:15:00,0.722
03/05/2024 21:30:00,0.721
03/05/2024 21:45:00,0.722
03/05/2024 22:00:00,0.72
03/05/2024 22:15:00,0.721
03/05/2024 22:30:00,0.72
03/05/2024 22:45:00,0.72
03/05/2024 23:00:00,0.719
03/05/2024 23:15:00,0.72
03/05/2024 23:30:00,0.72
03/05/2024 23:45:00,0.719
04/05/2024 00:00:00,0.72
04/05/2024 00:15:00,0.72
04/05/2024 00:30:00,0.72
04/05/2024 00:45:00,0.72
04/05/2024 01:00:00,0.72
04/05/2024 01:15:00,0.72
04/05/2024 01:30:00,0.716
04/05/2024 01:45:00,0.715
04/05/2024 02:00:00,0.714
04/05/2024 02:15:00,0.713
04/05/2024 02:30:00,0.712
04/05/2024 02:45:00,0.712
04/05/2024 03:00:00,0.711
04/05/2024 03:15:00,0.71
04/05/2024 03:30:00,0.707
04/05/2024 03:45:00,0.707
04/05/2024 04:00:00,0.707
04/05/2024 04:15:00,0.704
04/05/2024 04:30:00,0.703
04/05/2024 04:45:00,0.703
04/05/2024 05:00:00,0.701
04/05/2024 05:15:00,0.702
04/05/2024 05:30:00,0.701
04/05/2024 05:45:00,0.701
04/05/2024 06:00:00,0.701
04/05/2024 06:15:00,0.702
04/05/2024 06:30:00,0.701
